AO-07 1 07530U 74089B 18193.48395330 -.00000045 +00000-0 -91599-6 0 9990 2 07530 101.6896 160.4270 0011717 287.7106 189.3282 12.53633259997531 UO-11 1 14781U 84021B 18193.57213971 +.00000040 +00000-0 +11152-4 0 9991 2 14781 097.6472 228.7031 0008598 010.4462 349.6929 14.83016718827208 LO-19 1 20442U 90005G 18193.42067097 -.00000017 +00000-0 +10019-4 0 9997 2 20442 098.6108 131.7586 0012959 077.0856 283.1774 14.32899664487447 HUBBLE 1 20580U 90037B 18193.58225903 +.00000387 +00000-0 +12720-4 0 9994 2 20580 028.4699 307.2310 0002921 055.0620 050.9528 15.09063995349229 MET-2/21 1 22782U 93055A 18193.19128265 -.00000023 00000-0 -34423-4 0 9996 2 22782 82.5486 74.0916 0023430 58.3030 58.1763 13.83811935255637 AO-27 1 22825U 93061C 18193.40915720 -.00000021 +00000-0 +97918-5 0 9991 2 22825 098.8642 169.9841 0007288 274.3378 085.6970 14.30034356292901 IO-26 1 22826U 93061D 18193.42013768 -.00000013 +00000-0 +12957-4 0 9995 2 22826 098.8582 170.0298 0007798 262.2500 097.7796 14.30366087293116 FO-29 1 24278U 96046B 18193.44528011 -.00000034 +00000-0 -42292-6 0 9999 2 24278 098.5164 028.7180 0351149 045.5182 317.4104 13.53084670081402 NOAA-15 1 25338U 98030A 18193.52380652 .00000066 00000-0 46377-4 0 9997 2 25338 98.7683 209.9722 0011107 148.5111 211.6736 14.25864891 48620 GO-32 1 25397U 98043D 18193.40330214 -.00000025 +00000-0 +82986-5 0 9995 2 25397 098.6507 133.4262 0000852 009.7964 350.3231 14.23648169039096 ISS 1 25544U 98067A 18193.85327546 .00004314 00000-0 72770-4 0 9991 2 25544 51.6403 250.7848 0003831 308.1461 25.7899 15.53974365122501 NO-44 1 26931U 01043C 18193.31489650 -.00000065 00000-0 70087-5 0 9996 2 26931 67.0502 164.5716 0008001 270.9487 89.0697 14.30510474876143 SO-50 1 27607U 02058C 18193.49367216 -.00000050 +00000-0 +13743-4 0 9995 2 27607 064.5555 012.6795 0067855 322.9151 036.7272 14.75463649836562 CO-55 1 27844U 03031E 18193.49798614 +.00000036 +00000-0 +36117-4 0 9993 2 27844 098.6861 201.7805 0008716 302.9017 057.1321 14.22122241779757 CO-57 1 27848U 03031J 18193.46437150 +.00000030 +00000-0 +33784-4 0 9990 2 27848 098.6946 202.1537 0008774 314.5193 045.5267 14.21725397779626 RS-22 1 27939U 03042A 18193.84478897 .00000070 00000-0 21067-4 0 9993 2 27939 97.9941 332.3210 0014272 69.9985 84.4622 14.66700086790579 NOAA-18 1 28654U 05018A 18193.53849528 +.00000015 +00000-0 +33120-4 0 9994 2 28654 099.1431 229.5050 0015250 059.1983 301.0687 14.12380274677260 CO-58 1 28895U 05043F 18193.36722244 +.00000068 +00000-0 +21923-4 0 9991 2 28895 097.9122 343.8069 0016571 354.8750 005.2280 14.63561053677325 Falconsat-3 1 30776U 07006E 18193.18752410 +.00001576 +00000-0 +47424-4 0 9990 2 30776 035.4357 107.5806 0003879 262.2128 097.8158 15.34629621628169 CO-65 1 32785U 08021C 18193.46436304 +.00000159 +00000-0 +22890-4 0 9998 2 32785 097.5465 204.4353 0012016 320.3456 039.6881 14.88143347552861 AAUSAT2 1 32788U 08021F 18193.53274340 +.00000333 +00000-0 +35963-4 0 9998 2 32788 097.5202 218.9814 0010248 262.5951 097.4106 14.94385155553862 DO-64 1 32789U 08021G 18193.15895990 .00001392 00000-0 99188-4 0 9992 2 32789 97.5105 247.3348 0011793 205.5374 154.5272 15.06148093555543 CO-66 1 32791U 08021J 18193.31035563 .00000275 00000-0 33451-4 0 9995 2 32791 97.5352 209.7037 0011918 298.5297 61.4722 14.90583406553257 RS-30 1 32953U 08025A 18193.79431598 .00000019 00000-0 61157-4 0 9999 2 32953 82.5033 356.7499 0019679 152.0193 208.1949 12.43084263459959 PRISM 1 33493U 09002B 18193.71430328 -.00000099 00000-0 -31281-5 0 9993 2 33493 98.1294 96.7866 0013812 231.8834 128.1112 14.96259679514164 NOAA-19 1 33591U 09005A 18193.50308784 +.00000081 +00000-0 +69081-4 0 9999 2 33591 099.1433 172.0345 0012910 255.1042 104.8699 14.12292227485484 TISAT-1 1 36799U 10035E 18193.35258623 +.00000185 +00000-0 +24900-4 0 9992 2 36799 098.1098 330.2399 0013597 122.9662 237.2865 14.90830334433708 JUGNU 1 37839U 11058B 18193.56807831 +.00000306 +00000-0 +21435-4 0 9993 2 37839 019.9606 243.3475 0018922 166.1610 292.3042 14.12623161348851 SRMSAT 1 37841U 11058D 18193.55456840 +.00000299 +00000-0 +19478-4 0 9990 2 37841 019.9724 293.1578 0012044 049.1293 059.9266 14.10609639348372 AO-71 1 37854U 11061E 18193.66733585 .00000531 00000-0 35842-4 0 9996 2 37854 101.7021 271.6795 0163304 357.9810 2.0724 15.05541108365669 HRBE 1 37855U 11061F 18193.47875409 +.00000886 +00000-0 +53159-4 0 9992 2 37855 101.7152 268.9470 0176217 007.4391 352.9372 15.04527676364985 ALMASAT-1 1 38078U 12006B 18193.88219376 .00028659 39170-5 24998-3 0 9991 2 38078 69.4322 145.5790 0232602 67.1857 326.5966 15.42031750344617 HORYU-2 1 38340U 12025D 18193.30008421 +.00000137 +00000-0 +28236-4 0 9994 2 38340 098.3647 215.8811 0012677 127.1716 233.0652 14.75573133320400 RS-40 1 38735U 12041C 18193.71846898 .00000028 00000-0 13171-3 0 9993 2 38735 82.4762 80.7026 0015825 259.2792 100.6506 12.42576739270190 BEESAT-3 1 39134U 13015E 18193.60964784 +.00000747 +00000-0 +44746-4 0 9993 2 39134 064.8639 044.6683 0009130 216.2018 143.8492 15.19243249288382 BEESAT-2 1 39136U 13015G 18193.65210634 .00000423 00000-0 31877-4 0 9990 2 39136 64.8700 61.0748 0020233 233.5858 126.3402 15.16204379288452 ZACUBE-1 1 39417U 13066B 18193.51683622 +.00000142 +00000-0 +24270-4 0 9991 2 39417 097.5855 220.8011 0060650 072.7697 288.0142 14.80951827250540 TRITON-1 1 39427U 13066M 18193.66204665 .00000147 00000-0 31441-4 0 9997 2 39427 97.6422 187.9041 0114077 176.9647 183.2277 14.67685096248317 GOMX-1 1 39430U 13066Q 18193.88261577 .00000116 00000-0 30367-4 0 9992 2 39430 97.6991 168.9092 0150033 249.2905 109.2160 14.59096686246892 LO-74 1 39440U 13066AA 18193.50049417 +.00000156 +00000-0 +28624-4 0 9996 2 39440 097.6004 207.2325 0081976 112.9085 248.0805 14.75689861248451 AO-73 1 39444U 13066AE 18193.02669397 +.00000214 +00000-0 +32742-4 0 9993 2 39444 097.5863 221.8938 0059736 069.7476 291.0146 14.81736572248748 SPROUT 1 39770U 14029E 18193.76250960 .00000398 00000-0 50721-4 0 9998 2 39770 97.8764 294.5965 0010115 120.6354 239.5835 14.86891099224163 DUCHIFAT-1 1 40021U 14033M 18193.30342697 +.00000268 +00000-0 +33409-4 0 9993 2 40021 097.9155 112.0680 0014516 094.6392 265.6484 14.90335131220697 NANOSATCBR1 1 40024U 14033Q 18193.28978354 +.00000190 +00000-0 +25841-4 0 9993 2 40024 097.9087 110.2476 0013802 096.8599 263.4189 14.89594494220096 EO-79 1 40025U 14033R 18193.48663103 +.00000176 +00000-0 +24837-4 0 9997 2 40025 097.9044 108.8332 0013975 100.4141 259.8651 14.88735557220044 DTUSAT-2 1 40030U 14033W 18193.72721475 .00000182 00000-0 25691-4 0 9993 2 40030 97.8988 107.7359 0013454 95.3016 264.9736 14.88342262220530 EO-80 1 40032U 14033Y 18193.71898602 .00000195 00000-0 27112-4 0 9995 2 40032 97.8996 107.7302 0013346 95.7573 264.5166 14.88279803220523 ANTELSAT 1 40034U 14033AA 18193.25464938 +.00000156 +00000-0 +30657-4 0 9992 2 40034 097.8080 068.9708 0060140 116.5798 244.1591 14.73940350217845 VELOX-1 1 40057U 14034E 18193.84134947 .00000232 00000-0 40167-4 0 9999 2 40057 98.2048 305.3335 0009745 243.0786 116.9425 14.77449161217435 DAURIA DX 1 1 40071U 14037C 18193.81986330 .00000075 00000-0 17166-4 0 9994 2 40071 98.3787 326.3285 0007369 234.4960 125.5573 14.81171130216798 UKUBE-1 1 40074U 14037F 18193.84413815 .00000243 00000-0 36426-4 0 9990 2 40074 98.3906 332.4024 0003657 228.1957 131.8949 14.83823021217103 HODOYOSHI-1 1 40299U 14070B 18193.75479547 .00000502 00000-0 24312-4 0 9999 2 40299 97.3771 275.0773 0013583 154.2973 304.8076 15.22940745204375 CHUBUSAT-1 1 40300U 14070C 18193.68343703 .00000529 00000-0 26389-4 0 9993 2 40300 97.3622 270.8324 0020277 168.9697 343.8194 15.21615139204156 QSAT-EOS 1 40301U 14070D 18193.85639539 .00001335 00000-0 56144-4 0 9996 2 40301 97.3592 272.4022 0026896 158.6721 337.6656 15.24841907204334 FIREBIRD FU3 1 40377U 15003B 18193.70839131 .00001233 00000-0 54020-4 0 9998 2 40377 99.0847 100.5151 0131572 145.4024 215.5854 15.17307796190198 FIREBIRD FU4 1 40378U 15003C 18193.69709053 .00001216 00000-0 53311-4 0 9999 2 40378 99.0848 100.5606 0131791 145.3269 215.6640 15.17316983190190 GRIFEX 1 40379U 15003D 18193.45036002 +.00000766 +00000-0 +37703-4 0 9997 2 40379 099.0873 096.2835 0138560 159.1438 201.5519 15.14401259189911 NO-84 1 40654U 15025D 18193.47550317 +.00008372 +00000-0 +13518-3 0 03519 2 40654 054.9922 282.0300 0157250 172.5885 187.7470 15.41159533059749 NO-83 1 40655U 15025E 18193.34597310 +.00013179 +00000-0 +13748-3 0 04078 2 40655 054.9752 222.7374 0102826 207.3655 152.1907 15.58560955060200 DEORBITSAIL 1 40719U 15032E 18193.25962841 +.00000293 +00000-0 +49464-4 0 9996 2 40719 097.9425 086.3654 0015917 332.5454 027.4913 14.76463122161875 NUDT-PHONESAT 1 40900U 15049B 18193.75883091 .00001614 00000-0 74891-4 0 9990 2 40900 97.4406 201.7162 0011884 304.6474 55.3641 15.21432589155807 XW-2A 1 40903U 15049E 18193.76859208 .00001446 00000-0 37580-4 0 9994 2 40903 97.3822 228.8769 0012548 301.9959 58.0067 15.40601478157743 XW-2C 1 40906U 15049H 18193.74333898 .00000470 00000-0 28490-4 0 9993 2 40906 97.4598 196.7666 0013611 305.4684 54.5277 15.15232006155361 XW-2D 1 40907U 15049J 18193.75925300 .00000512 00000-0 30570-4 0 9999 2 40907 97.4572 196.4762 0012923 303.1186 56.8806 15.15386178155379 LILACSAT-2 1 40908U 15049K 18193.73085337 .00000254 00000-0 17807-4 0 9996 2 40908 97.4685 195.7740 0014644 304.9244 55.0611 15.13536416155239 XW-2F 1 40910U 15049M 18193.75354598 .00000774 00000-0 42996-4 0 9993 2 40910 97.4572 197.8321 0013535 298.0274 61.9590 15.16598495155330 XW-2B 1 40911U 15049N 18193.84374685 .00000504 00000-0 30201-4 0 9990 2 40911 97.4607 197.1065 0012838 303.4564 56.5440 15.15329293155281 DCBB 1 40912U 15049P 18193.78152792 .00000785 00000-0 40919-4 0 9995 2 40912 97.4499 200.7467 0013637 283.9087 161.1726 15.18822905155559 TW-1C 1 40926U 15051B 18193.78333071 .00006422 00000-0 11839-3 0 9996 2 40926 97.1814 236.0090 0009866 172.7510 278.2270 15.49432567157271 TW-1A 1 40928U 15051D 18193.82645225 .00001801 00000-0 48939-4 0 9998 2 40928 97.1835 227.3069 0010358 222.5083 222.9876 15.38832816156728 IO-86 1 40931U 15052B 18192.98230901 .00000722 00000-0 11511-4 0 9997 2 40931 5.9998 333.2814 0013761 359.2706 0.7582 14.76580077150679 LQSat 1 40958U 15057A 18193.77431042 -.00000006 00000-0 68700-5 0 9997 2 40958 97.9389 266.3516 0016865 254.4527 105.4818 14.73037480148611 AO-85 1 40967U 15058D 18193.27373586 +.00000126 +00000-0 +31308-4 0 03833 2 40967 064.7784 115.1109 0209170 305.9999 052.1876 14.75742157057357 ATHENOXAT-1 1 41168U 15077C 18193.61474346 .00001497 00000-0 44921-4 0 9992 2 41168 14.9842 194.1928 0011806 35.6808 84.3953 15.12838811142232 ChubuSat-2 1 41338U 16012B 18193.33465244 +.00000257 +00000-0 +13283-4 0 9997 2 41338 031.0024 153.8726 0013820 322.0152 037.9509 14.99995806131617 ChubuSat-3 1 41339U 16012C 18193.27874046 .00000251 00000-0 12837-4 0 9993 2 41339 31.0103 152.7897 0013741 327.5560 32.4231 15.00182173131595 Horyu-4 1 41340U 16012D 18193.25749453 .00000386 00000-0 22796-4 0 9990 2 41340 31.0044 147.4165 0013981 341.6406 18.3724 15.01009182131669 OUFTI-1 1 41458U 16025C 18193.77409520 .00001500 00000-0 81174-4 0 9993 2 41458 98.1360 257.9906 0170741 62.4297 299.4147 15.04770186121288 e-st@r-II 1 41459U 16025D 18193.71912119 .00001941 00000-0 10433-3 0 9999 2 41459 98.1357 257.7617 0171358 63.2633 298.5994 15.04493930121267 AAUSAT4 1 41460U 16025E 18193.80593485 .00001323 00000-0 71745-4 0 9990 2 41460 98.1260 258.3902 0162721 58.5198 303.1811 15.05957405121346 LO-87 1 41557U 16033B 18193.31904376 .00001053 00000-0 41077-4 0 9992 2 41557 97.4379 277.4869 0015944 76.6385 283.6630 15.28088956117991 NuSat2 1 41558U 16033C 18193.70948776 .00000993 00000-0 38718-4 0 9998 2 41558 97.4392 277.9981 0014763 69.3171 290.9649 15.28261662118042 Lapan A3 1 41603U 16040E 18193.75775880 .00000219 00000-0 13447-4 0 9999 2 41603 97.4100 254.8153 0014218 144.8382 311.1056 15.19580530113965 Swayam 1 41607U 16040J 18193.42904993 +.00001203 +00000-0 +55130-4 0 9995 2 41607 097.4116 256.0642 0014795 144.4771 215.7454 15.22308211113948 Pratham 1 41783U 16059A 18193.17051634 .00000029 00000-0 15058-4 0 9997 2 41783 98.1159 254.3244 0033987 19.5672 340.6826 14.62931314 95616 AlSat 1N 1 41789U 16059G 18193.72188592 .00000038 00000-0 16302-4 0 9991 2 41789 98.1173 256.1413 0028850 9.7488 350.4266 14.64164974 95759 ScatSat 1 41790U 16059H 18193.20928808 +.00000011 +00000-0 +13925-4 0 9997 2 41790 098.2576 240.5430 0018701 018.9132 341.2753 14.50861422094819 TY-1 1 41844U 16066D 18193.82194951 .00001053 00000-0 47239-4 0 9999 2 41844 97.4052 200.4454 0014337 312.2831 130.1131 15.23329752 92782 Pegasus-1 1 41846U 16066F 18193.52754581 +.00000283 +00000-0 +53192-4 0 9998 2 41846 098.7524 222.5057 0368469 171.5660 189.1956 14.37359436087543 CAS-2T 1 41847U 16066G 18193.09340309 .00000059 00000-0 19295-4 0 9997 2 41847 98.7484 222.5169 0366465 170.3239 190.5264 14.37904599 87900 TO-89 1 41932U 98067KU 18193.45841258 +.00030497 +00000-0 +17951-3 0 9997 2 41932 051.6296 210.4418 0003946 336.2277 023.8541 15.77928514084758 AOBA-V3LOX3 1 41935U 98067KX 18193.46628973 +.00048651 +00000-0 +22722-3 0 9991 2 41935 051.6323 205.1790 0004176 348.8009 011.2900 15.82769773084929 EO-88 1 42017U 17008BX 18193.62947887 .00001157 00000-0 49963-4 0 9992 2 42017 97.4467 258.5348 0004823 297.4978 62.5769 15.24519933 77945 HAVELSAT 1 42700U 98067LH 18193.45096532 +.00023391 +00000-0 +17549-3 0 9996 2 42700 051.6329 225.4445 0005086 357.4155 002.6817 15.72484744065995 SOMP2 1 42701U 98067LJ 18193.45566681 +.00020665 +00000-0 +16292-3 0 9999 2 42701 051.6338 226.9832 0004939 354.6174 005.4770 15.71391377065962 PHOENIX 1 42706U 98067LP 18193.31812484 .00016675 00000-0 13970-3 0 9990 2 42706 51.6338 228.3255 0001579 337.6053 22.4875 15.70107698 65859 X-CubeSat 1 42707U 98067LQ 18193.48559660 +.00024595 +00000-0 +17920-3 0 9992 2 42707 051.6298 224.8489 0002210 350.4707 009.6250 15.73152861065902 qbee 1 42708U 98067LR 18193.32008705 .00023534 00000-0 17881-3 0 9993 2 42708 51.6336 226.8189 0002166 346.1131 13.9807 15.72190087 65826 ZA-AeroSat 1 42713U 98067LU 18193.49573147 +.00014607 +00000-0 +13005-3 0 9999 2 42713 051.6330 230.2508 0001891 304.8751 055.2068 15.68744707065505 LINK 1 42714U 98067LV 18193.46523613 +.00070472 +00000-0 +31086-3 0 9991 2 42714 051.6216 216.2894 0003823 003.0609 357.0417 15.83833810065791 UPSat 1 42716U 98067LX 18193.46481673 +.00040831 +00000-0 +23742-3 0 9998 2 42716 051.6297 220.2055 0004627 001.6486 358.4529 15.78048965065765 SpaceCube 1 42717U 98067LY 18193.47509979 +.00022244 +00000-0 +17010-3 0 9999 2 42717 051.6306 226.3233 0003950 357.9128 002.1853 15.72071112064924 Hoopoe 1 42718U 98067LZ 18193.46133555 +.00031272 +00000-0 +20767-3 0 9996 2 42718 051.6305 223.2288 0004391 358.0968 002.0014 15.75164070064965 Challenger 1 42721U 98067MA 18193.41606790 +.00186866 +24688-4 +48087-3 0 9998 2 42721 051.6232 209.8894 0008024 014.0603 346.0627 15.94775362064833 NJUST-1 1 42722U 98067MB 18193.50855004 +.00014439 +00000-0 +13390-3 0 9996 2 42722 051.6341 231.8626 0005742 336.8366 023.2371 15.67736599064556 UNSW-EC0 1 42723U 98067MC 18193.44882758 +.00036456 +00000-0 +23173-3 0 9999 2 42723 051.6356 223.1871 0005868 348.1051 011.9809 15.76079695064642 DUTHsat 1 42724U 98067MD 18193.43033440 .00125706 16919-4 40840-3 0 9992 2 42724 51.6280 212.3455 0007350 11.5251 348.5922 15.90508716 64707 LO-90 1 42725U 98067ME 18193.50821813 +.00020812 +00000-0 +17038-3 0 9995 2 42725 051.6339 228.8482 0005037 342.1883 017.8937 15.70479491064515 nSIGHT1 1 42726U 98067MF 18193.52554641 +.00008472 +00000-0 +10143-3 0 9998 2 42726 051.6374 239.5525 0005254 335.0778 024.9962 15.61886716064369 SNUSAT 1B 1 42727U 98067MG 18193.32954671 .00019996 00000-0 16415-3 0 9995 2 42727 51.6320 229.8456 0005759 307.5887 52.4587 15.70438267 64432 QBITO 1 42728U 98067MH 18193.49504004 +.00024506 +00000-0 +18405-3 0 9999 2 42728 051.6363 226.5595 0003560 353.0976 006.9973 15.72435116064335 Aalto-2 1 42729U 98067MJ 18193.46965702 +.00023666 +00000-0 +17577-3 0 9998 2 42729 051.6326 226.3204 0003613 352.5423 007.5522 15.72722235064349 SUSat 1 42730U 98067MK 18193.48738290 +.00021746 +00000-0 +17382-3 0 9993 2 42730 051.6331 227.9397 0003484 348.9464 011.1457 15.71029813064324 i-INSPIRE II 1 42731U 98067ML 18193.49554380 +.00040870 +00000-0 +25206-3 0 9994 2 42731 051.6347 221.9139 0004428 314.7337 045.3302 15.76721183064444 PolyITAN-2-SAU 1 42732U 98067MM 18193.49441226 +.00024205 +00000-0 +17793-3 0 9995 2 42732 051.6327 225.7025 0004756 303.2369 056.8174 15.72946084064394 ExAlta-1 1 42734U 98067MP 18193.46559284 +.00042426 +00000-0 +25131-3 0 9998 2 42734 051.6270 221.6630 0006531 335.7842 024.2850 15.77600762064394 Aoxiang-1 1 42735U 98067MQ 18193.46849898 +.00015308 +00000-0 +13970-3 0 9999 2 42735 051.6334 231.5688 0006094 333.5657 026.5028 15.68075319065682 BeEagleSat 1 42736U 98067MR 18193.50035325 +.00018029 +00000-0 +15316-3 0 9996 2 42736 051.6331 229.5168 0005951 335.8309 024.2408 15.69689181064405 CAS-4B 1 42759U 17034B 18193.82411709 .00000037 00000-0 15868-4 0 9998 2 42759 43.0199 302.5221 0010495 272.2036 232.7191 15.09320764 59322 CAS-4A 1 42761U 17034D 18193.74020453 .00000014 00000-0 14409-4 0 9999 2 42761 43.0211 302.7402 0010877 270.2804 244.6495 15.09396735 59306 UCLSat 1 42765U 17036A 18193.58856229 +.00000921 +00000-0 +43449-4 0 9998 2 42765 097.3992 253.0265 0011524 356.2962 003.8187 15.21913210059167 NIUSat 1 42766U 17036B 18193.60341365 +.00000749 +00000-0 +37406-4 0 9996 2 42766 097.3992 252.2615 0015283 341.2719 018.7952 15.20444666058390 LituanicaSAT 2 1 42768U 17036D 18193.58772229 +.00001584 +00000-0 +73384-4 0 9995 2 42768 097.4008 252.6141 0015023 343.7088 016.3663 15.21471727058423 Aalto 1 1 42775U 17036L 18193.36532061 .00000578 00000-0 29292-4 0 9998 2 42775 97.3985 252.2514 0013591 343.3257 16.7530 15.20791124 58327 URSA MAIOR 1 42776U 17036M 18193.35057045 .00000657 00000-0 32826-4 0 9997 2 42776 97.3993 252.2932 0013426 343.6834 16.3967 15.20873319 58329 Max Valier Sat 1 42778U 17036P 18193.63506317 .00000762 00000-0 37049-4 0 9990 2 42778 97.4016 252.9238 0012092 348.8254 11.2712 15.21362682 58379 Pegasus 1 42784U 17036V 18193.36616678 +.00000863 +00000-0 +41131-4 0 9998 2 42784 097.3994 252.7275 0012071 356.7502 003.3654 15.21720057058348 NUDATSat 1 42787U 17036Y 18193.60340032 +.00001327 +00000-0 +60526-4 0 9991 2 42787 097.4002 253.1870 0011539 355.8288 004.2850 15.22320974058238 SUCHAI 1 1 42788U 17036Z 18193.64762725 .00001060 00000-0 49401-4 0 9996 2 42788 97.3995 253.1134 0011630 355.8631 4.2507 15.21999207 58460 SKCUBE 1 42789U 17036AA 18193.38472429 +.00000967 +00000-0 +45392-4 0 9997 2 42789 097.3994 252.8473 0011499 356.8985 003.2178 15.21956591058347 VZLUSAT 1 1 42790U 17036AB 18193.59236590 +.00001298 +00000-0 +59236-4 0 9999 2 42790 097.3999 253.1835 0011114 356.5815 003.5344 15.22340765058386 VENTA 1 1 42791U 17036AC 18193.16819991 +.00000977 +00000-0 +45793-4 0 9991 2 42791 097.3993 252.6756 0011197 358.5942 001.5260 15.22004722058308 Robusta 1B 1 42792U 17036AD 18193.41676541 +.00001012 +00000-0 +47187-4 0 9992 2 42792 097.3994 252.9463 0011122 358.1244 001.9949 15.22101700058365 D-SAT 1 42794U 17036AF 18193.34644361 +.00000221 +00000-0 +24788-4 0 9994 2 42794 097.5896 247.0519 0126589 197.8586 161.8165 14.90886028057472 BIRD-J 1 42820U 98067MU 18193.52140575 +.00018424 +00000-0 +16235-3 0 9996 2 42820 051.6330 231.9169 0002228 291.8020 068.2740 15.68789263057850 BIRD-G 1 42821U 98067MV 18193.51870306 +.00017281 +00000-0 +15629-3 0 9994 2 42821 051.6331 232.6525 0002274 293.5993 066.4765 15.68202121057822 BIRD-M 1 42822U 98067MW 18193.49600909 +.00016854 +00000-0 +15085-3 0 9993 2 42822 051.6332 232.5045 0002361 296.4618 063.6136 15.68480198057826 BIRD-B 1 42823U 98067MX 18193.49039884 +.00016423 +00000-0 +14646-3 0 9996 2 42823 051.6340 232.4864 0004818 301.9936 058.0592 15.68586500057826 BIRD-N 1 42824U 98067MY 18193.51805610 +.00017968 +00000-0 +16119-3 0 9990 2 42824 051.6345 232.6888 0004727 302.7265 057.3276 15.68362802057821 TechnoSat 1 42829U 17042E 18193.66759546 .00000215 00000-0 27279-4 0 9998 2 42829 97.5944 95.0589 0015678 112.3338 247.9544 14.90835441 54125 TOMSK-TPU 120 1 42910U 98067MZ 18193.48898525 +.00011307 +00000-0 +11826-3 0 9990 2 42910 051.6336 237.7025 0005902 314.7106 045.3408 15.64980557051343 TANYUSHA 1 1 42911U 98067NA 18193.51901875 +.00014929 +00000-0 +14758-3 0 9998 2 42911 051.6342 236.4404 0005468 312.5100 047.5433 15.66106800051340 TANYUSHA 2 1 42912U 98067NB 18193.53101311 +.00014052 +00000-0 +14269-3 0 9992 2 42912 051.6358 237.2502 0005091 323.9585 036.1067 15.65492118051358 SFERA 2 1 42913U 98067NC 18193.46019336 +.00037702 +00000-0 +25577-3 0 9991 2 42913 051.6319 228.4459 0004995 347.3199 012.7674 15.74570460051465 TNS 0-2 1 42914U 98067ND 18193.53748057 +.00012950 +00000-0 +13561-3 0 9997 2 42914 051.6348 238.0711 0005022 317.7031 042.3576 15.64794678051316 QIKCOM-1 1 42983U 98067NF 18193.44238479 +.00001848 +00000-0 +32531-4 0 9998 2 42983 051.6393 250.2476 0003842 297.1540 062.9060 15.56405599040158 AO-91 1 43017U 17073E 18193.73460453 .00000211 00000-0 22257-4 0 9993 2 43017 97.7074 123.8040 0259411 188.1510 171.5449 14.78104040 34888 EcAMSat 1 43019U 98067NG 18193.37547815 .00003283 00000-0 50790-4 0 9990 2 43019 51.6394 249.8045 0004517 270.2298 89.8176 15.57308799122475 PICSAT 1 43132U 18004X 18193.60728321 +.00000933 +00000-0 +43103-4 0 9997 2 43132 097.5324 256.3537 0010381 019.3791 340.7838 15.22706689027580 AO-92 1 43137U 18004AC 18193.59473534 +.00000802 +00000-0 +37432-4 0 9996 2 43137 097.5320 256.3642 0009971 021.5712 338.5943 15.22764836027589 TianYi 2 1 43155U 18008A 18193.86683255 .00000616 00000-0 41000-4 0 9992 2 43155 97.5238 267.9075 0019397 60.2845 51.7174 15.10603114 26368 Zhou Enlai 1 43156U 18008B 18193.86243417 .00000572 00000-0 38959-4 0 9995 2 43156 97.5282 267.8610 0016521 57.8458 45.3378 15.10064959 26352 TianYi 6 1 43158U 18008D 18193.70505832 .00000626 00000-0 42632-4 0 9995 2 43158 97.5216 267.5388 0015181 51.8524 99.6867 15.09764351 26300 S-Net G 1 43186U 18014G 18193.69813995 .00000651 00000-0 62354-4 0 9994 2 43186 97.7238 101.8450 0012719 69.6972 290.5615 14.96469820 24135 S-Net H 1 43187U 18014H 18193.69804787 .00000653 00000-0 62546-4 0 9999 2 43187 97.7236 101.8415 0012735 69.7323 290.5266 14.96470707 24132 S-Net J 1 43188U 18014J 18193.69795694 .00000650 00000-0 62333-4 0 9997 2 43188 97.7238 101.8466 0012734 69.8390 290.4200 14.96471437 24133 S-Net K 1 43189U 18014K 18193.69807881 .00000647 00000-0 62049-4 0 9990 2 43189 97.7236 101.8406 0012725 69.7415 290.5174 14.96470290 22688 FMN 1 1 43192U 18015A 18193.79520413 .00001526 00000-0 67801-4 0 9997 2 43192 97.3587 322.1613 0018373 56.2824 304.0163 15.22901642 24417 Shaonian Xing 1 43199U 18015H 18193.76275482 .00001107 00000-0 48757-4 0 9998 2 43199 97.3373 321.8859 0019185 68.0912 292.2367 15.23753972 24434 1KUNS-PF 1 43466U 98067NP 18193.54353007 +.00007969 +00000-0 +11860-3 0 9992 2 43466 051.6389 251.6687 0000297 021.1077 338.9926 15.56127536009648 UBAKUSAT 1 43467U 98067NQ 18193.54568196 +.00005955 +00000-0 +91037-4 0 9998 2 43467 051.6393 251.6846 0002079 226.8438 133.2380 15.55932926009653 Irazu 1 43468U 98067NR 18193.53833286 +.00009581 +00000-0 +14002-3 0 9998 2 43468 051.6389 251.6342 0000456 023.8674 336.2339 15.56353892109632 /EX